Time,TemperatureF,DewpointF,PressureIn,WindDirection,WindDirectionDegrees,WindSpeedMPH,WindSpeedGustMPH,Humidity,HourlyPrecipIn,Conditions,Clouds,dailyrainin,SoftwareType,DateUTC
2013-02-11 00:01:00,45.0,-99.9,30.34,North,6,2.0,4.0,-999,-99.99,,,-99.99,,2013-02-11 08:01:00,
2013-02-11 00:11:00,45.0,-99.9,30.34,NNE,21,2.0,4.0,-999,-99.99,,,-99.99,,2013-02-11 08:11:00,
2013-02-11 00:22:00,46.0,-99.9,30.34,NE,46,2.0,4.0,-999,-99.99,,,-99.99,,2013-02-11 08:22:00,
2013-02-11 00:32:00,45.0,-99.9,30.34,NNE,15,2.0,6.0,-999,-99.99,,,-99.99,,2013-02-11 08:32:00,
2013-02-11 00:42:00,46.0,-99.9,30.34,North,10,4.0,6.0,-999,-99.99,,,-99.99,,2013-02-11 08:42:00,
2013-02-11 00:52:00,46.0,-99.9,30.34,North,3,2.0,4.0,-999,-99.99,,,-99.99,,2013-02-11 08:52:00,
2013-02-11 01:02:00,45.0,-99.9,30.34,NNE,17,2.0,3.0,-999,-99.99,,,-99.99,,2013-02-11 09:02:00,
2013-02-11 01:12:00,45.0,-99.9,30.34,NNE,24,2.0,3.0,-999,-99.99,,,-99.99,,2013-02-11 09:12:00,
2013-02-11 01:22:00,45.0,-99.9,30.34,North,10,3.0,5.0,-999,-99.99,,,-99.99,,2013-02-11 09:22:00,
2013-02-11 01:32:00,46.0,-99.9,30.34,NNE,17,5.0,8.0,-999,-99.99,,,-99.99,,2013-02-11 09:32:00,
2013-02-11 01:42:00,46.0,-99.9,30.34,NE,49,2.0,9.0,-999,-99.99,,,-99.99,,2013-02-11 09:42:00,
2013-02-11 01:52:00,46.0,-99.9,30.34,NNE,31,4.0,5.0,-999,-99.99,,,-99.99,,2013-02-11 09:52:00,
2013-02-11 02:02:00,46.0,-99.9,30.34,ENE,62,2.0,8.0,-999,-99.99,,,-99.99,,2013-02-11 10:02:00,
2013-02-11 02:11:00,46.0,-99.9,30.34,NE,48,2.0,4.0,-999,-99.99,,,-99.99,,2013-02-11 10:11:00,
2013-02-11 02:21:00,46.0,-99.9,30.34,NE,46,3.0,8.0,-999,-99.99,,,-99.99,,2013-02-11 10:21:00,
2013-02-11 02:32:00,46.0,-99.9,30.35,NE,41,2.0,5.0,-999,-99.99,,,-99.99,,2013-02-11 10:32:00,
2013-02-11 02:42:00,46.0,-99.9,30.35,ENE,68,3.0,5.0,-999,-99.99,,,-99.99,,2013-02-11 10:42:00,
2013-02-11 02:52:00,46.0,-99.9,30.35,NNE,12,2.0,5.0,-999,-99.99,,,-99.99,,2013-02-11 10:52:00,
2013-02-11 03:02:00,45.0,-99.9,30.35,East,91,1.0,2.0,-999,-99.99,,,-99.99,,2013-02-11 11:02:00,
2013-02-11 03:11:00,45.0,-99.9,30.35,ENE,63,0.0,3.0,-999,-99.99,,,-99.99,,2013-02-11 11:11:00,
2013-02-11 03:22:00,45.0,-99.9,30.35,East,99,1.0,2.0,-999,-99.99,,,-99.99,,2013-02-11 11:22:00,
2013-02-11 03:32:00,45.0,-99.9,30.35,East,100,4.0,5.0,-999,-99.99,,,-99.99,,2013-02-11 11:32:00,
2013-02-11 03:42:00,44.0,-99.9,30.35,East,97,3.0,5.0,-999,-99.99,,,-99.99,,2013-02-11 11:42:00,
2013-02-11 03:52:00,44.0,-99.9,30.35,East,93,1.0,3.0,-999,-99.99,,,-99.99,,2013-02-11 11:52:00,
2013-02-11 04:03:00,45.0,-99.9,30.35,NNE,24,2.0,2.0,-999,-99.99,,,-99.99,,2013-02-11 12:03:00,
2013-02-11 04:12:00,44.0,-99.9,30.35,NE,38,2.0,4.0,-999,-99.99,,,-99.99,,2013-02-11 12:12:00,
2013-02-11 04:22:00,44.0,-99.9,30.35,NE,37,1.0,2.0,-999,-99.99,,,-99.99,,2013-02-11 12:22:00,
2013-02-11 04:32:00,45.0,-99.9,30.35,NE,45,1.0,3.0,-999,-99.99,,,-99.99,,2013-02-11 12:32:00,
2013-02-11 04:43:00,45.0,-99.9,30.35,NNE,23,2.0,3.0,-999,-99.99,,,-99.99,,2013-02-11 12:43:00,
2013-02-11 04:52:00,45.0,-99.9,30.36,East,80,1.0,3.0,-999,-99.99,,,-99.99,,2013-02-11 12:52:00,
2013-02-11 05:02:00,45.0,-99.9,30.36,NNE,28,3.0,4.0,-999,-99.99,,,-99.99,,2013-02-11 13:02:00,
2013-02-11 05:12:00,45.0,-99.9,30.36,North,8,3.0,5.0,-999,-99.99,,,-99.99,,2013-02-11 13:12:00,
2013-02-11 05:22:00,45.0,-99.9,30.37,North,9,4.0,6.0,-999,-99.99,,,-99.99,,2013-02-11 13:22:00,
2013-02-11 05:33:00,45.0,-99.9,30.37,NNE,20,3.0,5.0,-999,-99.99,,,-99.99,,2013-02-11 13:33:00,
2013-02-11 05:42:00,45.0,-99.9,30.37,North,1,2.0,4.0,-999,-99.99,,,-99.99,,2013-02-11 13:42:00,
2013-02-11 05:52:00,45.0,-99.9,30.37,NNE,21,2.0,3.0,-999,-99.99,,,-99.99,,2013-02-11 13:52:00,
2013-02-11 06:02:00,45.0,-99.9,30.37,NE,42,3.0,6.0,-999,-99.99,,,-99.99,,2013-02-11 14:02:00,
2013-02-11 06:12:00,45.0,-99.9,30.37,NNE,33,2.0,5.0,-999,-99.99,,,-99.99,,2013-02-11 14:12:00,
2013-02-11 06:22:00,45.0,-99.9,30.37,NNE,28,3.0,4.0,-999,-99.99,,,-99.99,,2013-02-11 14:22:00,
2013-02-11 06:33:00,45.0,-99.9,30.37,ENE,60,0.0,3.0,-999,-99.99,,,-99.99,,2013-02-11 14:33:00,
2013-02-11 06:42:00,45.0,-99.9,30.38,East,85,1.0,2.0,-999,-99.99,,,-99.99,,2013-02-11 14:42:00,
2013-02-11 06:53:00,45.0,-99.9,30.38,NNE,12,1.0,3.0,-999,-99.99,,,-99.99,,2013-02-11 14:53:00,
2013-02-11 07:02:00,44.0,-99.9,30.38,East,94,3.0,5.0,-999,-99.99,,,-99.99,,2013-02-11 15:02:00,
2013-02-11 07:12:00,44.0,-99.9,30.38,East,91,1.0,3.0,-999,-99.99,,,-99.99,,2013-02-11 15:12:00,
2013-02-11 07:22:00,44.0,-99.9,30.38,ESE,105,0.0,2.0,-999,-99.99,,,-99.99,,2013-02-11 15:22:00,
2013-02-11 07:32:00,44.0,-99.9,30.38,ESE,102,5.0,5.0,-999,-99.99,,,-99.99,,2013-02-11 15:32:00,
2013-02-11 07:42:00,44.0,-99.9,30.39,ENE,74,1.0,4.0,-999,-99.99,,,-99.99,,2013-02-11 15:42:00,
2013-02-11 07:52:00,44.0,-99.9,30.39,East,82,2.0,4.0,-999,-99.99,,,-99.99,,2013-02-11 15:52:00,
2013-02-11 08:02:00,44.0,-99.9,30.39,East,97,4.0,5.0,-999,-99.99,,,-99.99,,2013-02-11 16:02:00,
2013-02-11 08:12:00,44.0,-99.9,30.39,East,97,5.0,6.0,-999,-99.99,,,-99.99,,2013-02-11 16:12:00,
2013-02-11 08:22:00,44.0,-99.9,30.39,East,99,5.0,6.0,-999,-99.99,,,-99.99,,2013-02-11 16:22:00,
2013-02-11 08:32:00,44.0,-99.9,30.39,East,96,4.0,6.0,-999,-99.99,,,-99.99,,2013-02-11 16:32:00,
2013-02-11 08:42:00,44.0,-99.9,30.39,East,90,3.0,5.0,-999,-99.99,,,-99.99,,2013-02-11 16:42:00,
2013-02-11 08:53:00,44.0,-99.9,30.39,East,96,5.0,6.0,-999,-99.99,,,-99.99,,2013-02-11 16:53:00,
2013-02-11 09:02:00,44.0,-99.9,30.40,East,96,4.0,5.0,-999,-99.99,,,-99.99,,2013-02-11 17:02:00,
2013-02-11 09:12:00,44.0,-99.9,30.40,ESE,103,4.0,5.0,-999,-99.99,,,-99.99,,2013-02-11 17:12:00,
2013-02-11 09:22:00,44.0,-99.9,30.40,ESE,103,4.0,5.0,-999,-99.99,,,-99.99,,2013-02-11 17:22:00,
2013-02-11 09:32:00,44.0,-99.9,30.40,ESE,105,5.0,6.0,-999,-99.99,,,-99.99,,2013-02-11 17:32:00,
2013-02-11 09:42:00,44.0,-99.9,30.40,ESE,108,4.0,6.0,-999,-99.99,,,-99.99,,2013-02-11 17:42:00,
2013-02-11 09:53:00,45.0,-99.9,30.41,ESE,108,4.0,6.0,-999,-99.99,,,-99.99,,2013-02-11 17:53:00,
2013-02-11 10:02:00,45.0,-99.9,30.40,SE,143,4.0,5.0,-999,-99.99,,,-99.99,,2013-02-11 18:02:00,
2013-02-11 10:12:00,45.0,-99.9,30.40,SE,124,3.0,5.0,-999,-99.99,,,-99.99,,2013-02-11 18:12:00,
2013-02-11 10:22:00,45.0,-99.9,30.41,ESE,121,2.0,3.0,-999,-99.99,,,-99.99,,2013-02-11 18:22:00,
2013-02-11 10:32:00,46.0,-99.9,30.41,ESE,114,2.0,2.0,-999,-99.99,,,-99.99,,2013-02-11 18:32:00,
2013-02-11 10:42:00,47.0,-99.9,30.41,ESE,105,2.0,3.0,-999,-99.99,,,-99.99,,2013-02-11 18:42:00,
2013-02-11 10:54:00,47.0,-99.9,30.41,ESE,122,1.0,2.0,-999,-99.99,,,-99.99,,2013-02-11 18:54:00,
2013-02-11 11:02:00,47.0,-99.9,30.42,SE,135,1.0,2.0,-999,-99.99,,,-99.99,,2013-02-11 19:02:00,
2013-02-11 11:12:00,48.0,-99.9,30.42,ESE,112,1.0,2.0,-999,-99.99,,,-99.99,,2013-02-11 19:12:00,
2013-02-11 11:22:00,47.0,-99.9,30.42,WSW,245,4.0,7.0,-999,-99.99,,,-99.99,,2013-02-11 19:22:00,
2013-02-11 11:32:00,47.0,-99.9,30.42,WSW,250,5.0,6.0,-999,-99.99,,,-99.99,,2013-02-11 19:32:00,
2013-02-11 11:42:00,47.0,-99.9,30.42,West,274,6.0,8.0,-999,-99.99,,,-99.99,,2013-02-11 19:42:00,
2013-02-11 11:52:00,47.0,-99.9,30.42,WSW,242,5.0,9.0,-999,-99.99,,,-99.99,,2013-02-11 19:52:00,
2013-02-11 12:02:00,47.0,-99.9,30.41,West,268,4.0,6.0,-999,-99.99,,,-99.99,,2013-02-11 20:02:00,
2013-02-11 12:12:00,47.0,-99.9,30.41,West,267,4.0,7.0,-999,-99.99,,,-99.99,,2013-02-11 20:12:00,
2013-02-11 12:22:00,47.0,-99.9,30.41,West,281,6.0,8.0,-999,-99.99,,,-99.99,,2013-02-11 20:22:00,
2013-02-11 12:32:00,47.0,-99.9,30.40,WNW,292,5.0,7.0,-999,-99.99,,,-99.99,,2013-02-11 20:32:00,
2013-02-11 12:42:00,47.0,-99.9,30.40,West,274,5.0,6.0,-999,-99.99,,,-99.99,,2013-02-11 20:42:00,
2013-02-11 12:52:00,47.0,-99.9,30.40,WNW,285,5.0,7.0,-999,-99.99,,,-99.99,,2013-02-11 20:52:00,
2013-02-11 13:02:00,47.0,-99.9,30.40,WNW,284,4.0,7.0,-999,-99.99,,,-99.99,,2013-02-11 21:02:00,
2013-02-11 13:12:00,47.0,-99.9,30.40,WNW,295,4.0,6.0,-999,-99.99,,,-99.99,,2013-02-11 21:12:00,
2013-02-11 13:22:00,47.0,-99.9,30.40,WNW,282,5.0,7.0,-999,-99.99,,,-99.99,,2013-02-11 21:22:00,
2013-02-11 13:32:00,47.0,-99.9,30.40,WNW,286,4.0,5.0,-999,-99.99,,,-99.99,,2013-02-11 21:32:00,
2013-02-11 13:42:00,47.0,-99.9,30.40,West,275,4.0,5.0,-999,-99.99,,,-99.99,,2013-02-11 21:42:00,
2013-02-11 13:52:00,47.0,-99.9,30.40,WSW,245,4.0,6.0,-999,-99.99,,,-99.99,,2013-02-11 21:52:00,
2013-02-11 14:02:00,46.0,-99.9,30.40,West,262,4.0,5.0,-999,-99.99,,,-99.99,,2013-02-11 22:02:00,
2013-02-11 14:12:00,45.0,-99.9,30.40,West,259,2.0,4.0,-999,-99.99,,,-99.99,,2013-02-11 22:12:00,
2013-02-11 14:22:00,45.0,-99.9,30.40,West,269,2.0,4.0,-999,-99.99,,,-99.99,,2013-02-11 22:22:00,
2013-02-11 14:32:00,45.0,-99.9,30.40,West,278,3.0,6.0,-999,-99.99,,,-99.99,,2013-02-11 22:32:00,
2013-02-11 14:42:00,45.0,-99.9,30.40,WSW,258,4.0,5.0,-999,-99.99,,,-99.99,,2013-02-11 22:42:00,
2013-02-11 14:52:00,45.0,-99.9,30.40,WSW,247,4.0,5.0,-999,-99.99,,,-99.99,,2013-02-11 22:52:00,
2013-02-11 15:02:00,45.0,-99.9,30.40,WSW,255,4.0,6.0,-999,-99.99,,,-99.99,,2013-02-11 23:02:00,
2013-02-11 15:12:00,45.0,-99.9,30.40,SW,236,4.0,6.0,-999,-99.99,,,-99.99,,2013-02-11 23:12:00,
2013-02-11 15:22:00,45.0,-99.9,30.40,West,263,4.0,6.0,-999,-99.99,,,-99.99,,2013-02-11 23:22:00,
2013-02-11 15:32:00,45.0,-99.9,30.40,WSW,238,4.0,6.0,-999,-99.99,,,-99.99,,2013-02-11 23:32:00,
2013-02-11 15:42:00,45.0,-99.9,30.40,WSW,240,4.0,6.0,-999,-99.99,,,-99.99,,2013-02-11 23:42:00,
2013-02-11 15:52:00,45.0,-99.9,30.40,WSW,243,6.0,6.0,-999,-99.99,,,-99.99,,2013-02-11 23:52:00,
2013-02-11 16:02:00,45.0,-99.9,30.40,SW,231,4.0,6.0,-999,-99.99,,,-99.99,,2013-02-12 00:02:00,
2013-02-11 16:12:00,45.0,-99.9,30.40,SSW,210,6.0,7.0,-999,-99.99,,,-99.99,,2013-02-12 00:12:00,
2013-02-11 16:22:00,45.0,-99.9,30.40,SSW,212,4.0,7.0,-999,-99.99,,,-99.99,,2013-02-12 00:22:00,
2013-02-11 16:32:00,45.0,-99.9,30.40,SW,220,4.0,7.0,-999,-99.99,,,-99.99,,2013-02-12 00:32:00,
2013-02-11 16:43:00,45.0,-99.9,30.40,SW,223,4.0,6.0,-999,-99.99,,,-99.99,,2013-02-12 00:43:00,
2013-02-11 16:52:00,45.0,-99.9,30.40,SSW,207,4.0,9.0,-999,-99.99,,,-99.99,,2013-02-12 00:52:00,
2013-02-11 17:02:00,45.0,-99.9,30.40,SSW,212,4.0,7.0,-999,-99.99,,,-99.99,,2013-02-12 01:02:00,
2013-02-11 17:12:00,45.0,-99.9,30.40,SW,218,4.0,7.0,-999,-99.99,,,-99.99,,2013-02-12 01:12:00,
2013-02-11 17:22:00,45.0,-99.9,30.40,SSW,200,5.0,6.0,-999,-99.99,,,-99.99,,2013-02-12 01:22:00,
2013-02-11 17:32:00,45.0,-99.9,30.40,SSW,198,3.0,6.0,-999,-99.99,,,-99.99,,2013-02-12 01:32:00,
2013-02-11 17:42:00,45.0,-99.9,30.40,SSW,203,5.0,7.0,-999,-99.99,,,-99.99,,2013-02-12 01:42:00,
2013-02-11 17:52:00,45.0,-99.9,30.40,SSW,201,6.0,8.0,-999,-99.99,,,-99.99,,2013-02-12 01:52:00,
2013-02-11 18:02:00,45.0,-99.9,30.40,SSW,197,4.0,8.0,-999,-99.99,,,-99.99,,2013-02-12 02:02:00,
2013-02-11 18:12:00,45.0,-99.9,30.40,SSW,205,5.0,10.0,-999,-99.99,,,-99.99,,2013-02-12 02:12:00,
2013-02-11 18:22:00,45.0,-99.9,30.40,SSW,193,5.0,9.0,-999,-99.99,,,-99.99,,2013-02-12 02:22:00,
2013-02-11 18:32:00,45.0,-99.9,30.40,SSW,207,4.0,11.0,-999,-99.99,,,-99.99,,2013-02-12 02:32:00,
2013-02-11 18:42:00,45.0,-99.9,30.40,South,187,5.0,9.0,-999,-99.99,,,-99.99,,2013-02-12 02:42:00,
2013-02-11 18:53:00,45.0,-99.9,30.40,SSW,199,2.0,7.0,-999,-99.99,,,-99.99,,2013-02-12 02:53:00,
2013-02-11 19:02:00,45.0,-99.9,30.40,SE,138,2.0,6.0,-999,-99.99,,,-99.99,,2013-02-12 03:02:00,
2013-02-11 19:11:00,45.0,-99.9,30.40,SSE,149,4.0,6.0,-999,-99.99,,,-99.99,,2013-02-12 03:11:00,
2013-02-11 19:21:00,45.0,-99.9,30.40,South,178,5.0,6.0,-999,-99.99,,,-99.99,,2013-02-12 03:21:00,
2013-02-11 19:32:00,45.0,-99.9,30.40,SSE,159,4.0,5.0,-999,-99.99,,,-99.99,,2013-02-12 03:32:00,
2013-02-11 19:42:00,45.0,-99.9,30.40,SE,144,4.0,6.0,-999,-99.99,,,-99.99,,2013-02-12 03:42:00,
2013-02-11 19:52:00,45.0,-99.9,30.40,SSE,163,5.0,9.0,-999,-99.99,,,-99.99,,2013-02-12 03:52:00,
2013-02-11 20:01:00,45.0,-99.9,30.40,South,174,5.0,7.0,-999,-99.99,,,-99.99,,2013-02-12 04:01:00,
2013-02-11 20:11:00,45.0,-99.9,30.40,SSE,150,4.0,6.0,-999,-99.99,,,-99.99,,2013-02-12 04:11:00,
2013-02-11 20:21:00,46.0,-99.9,30.40,South,176,1.0,6.0,-999,-99.99,,,-99.99,,2013-02-12 04:21:00,
2013-02-11 20:32:00,46.0,-99.9,30.40,South,175,3.0,6.0,-999,-99.99,,,-99.99,,2013-02-12 04:32:00,
2013-02-11 20:42:00,46.0,-99.9,30.40,South,176,2.0,5.0,-999,-99.99,,,-99.99,,2013-02-12 04:42:00,
2013-02-11 20:52:00,46.0,-99.9,30.40,South,170,4.0,6.0,-999,-99.99,,,-99.99,,2013-02-12 04:52:00,
2013-02-11 21:02:00,46.0,-99.9,30.40,SSE,164,4.0,5.0,-999,-99.99,,,-99.99,,2013-02-12 05:02:00,
2013-02-11 21:11:00,46.0,-99.9,30.40,SSE,162,4.0,7.0,-999,-99.99,,,-99.99,,2013-02-12 05:11:00,
2013-02-11 21:22:00,46.0,-99.9,30.40,South,184,4.0,7.0,-999,-99.99,,,-99.99,,2013-02-12 05:22:00,
2013-02-11 21:32:00,46.0,-99.9,30.40,SSW,192,6.0,9.0,-999,-99.99,,,-99.99,,2013-02-12 05:32:00,
2013-02-11 21:42:00,46.0,-99.9,30.40,South,182,4.0,9.0,-999,-99.99,,,-99.99,,2013-02-12 05:42:00,
2013-02-11 21:52:00,46.0,-99.9,30.41,SW,234,4.0,8.0,-999,-99.99,,,-99.99,,2013-02-12 05:52:00,
2013-02-11 22:02:00,46.0,-99.9,30.40,SSW,198,4.0,5.0,-999,-99.99,,,-99.99,,2013-02-12 06:02:00,
2013-02-11 22:12:00,46.0,-99.9,30.40,SSW,198,4.0,5.0,-999,-99.99,,,-99.99,,2013-02-12 06:12:00,
2013-02-11 22:22:00,46.0,-99.9,30.40,SSW,198,4.0,5.0,-999,-99.99,,,-99.99,,2013-02-12 06:22:00,
2013-02-11 22:42:00,48.0,-99.9,30.41,WNW,295,5.0,7.0,-999,-99.99,,,-99.99,,2013-02-12 06:42:00,
2013-02-11 22:52:00,48.0,-99.9,30.41,WNW,297,6.0,7.0,-999,-99.99,,,-99.99,,2013-02-12 06:52:00,
2013-02-11 23:02:00,47.0,-99.9,30.41,NW,312,6.0,10.0,-999,-99.99,,,-99.99,,2013-02-12 07:02:00,
2013-02-11 23:12:00,48.0,-99.9,30.41,NW,314,5.0,8.0,-999,-99.99,,,-99.99,,2013-02-12 07:12:00,
2013-02-11 23:22:00,48.0,-99.9,30.41,WNW,299,6.0,8.0,-999,-99.99,,,-99.99,,2013-02-12 07:22:00,
2013-02-11 23:32:00,48.0,-99.9,30.41,WNW,291,4.0,6.0,-999,-99.99,,,-99.99,,2013-02-12 07:32:00,
2013-02-11 23:42:00,48.0,-99.9,30.41,WNW,291,4.0,6.0,-999,-99.99,,,-99.99,,2013-02-12 07:42:00,
2013-02-11 23:52:00,48.0,-99.9,30.41,WNW,291,4.0,6.0,-999,-99.99,,,-99.99,,2013-02-12 07:52:00,